Torna al catalogo

FENGYUN 1C DEB

LostPO
NORAD 31932·DEBRIS·🇨🇳 China

Lanciato May 10, 1999 da Taiyuan Satellite Launch Center

Loading…

Prossimi Passaggi (prossime 24 ore)

TLE

ObsoletoSource: Space-Track

Epoca: Jan 12, 2021, 07:53 UTC

1 31932U 99025CMH 21012.32899396 -.00000556  00000-0 -28429-3 0  9994
2 31932  97.7609  90.6617 0131964 136.6133 224.5518 14.07922030697854

Traccia FENGYUN 1C DEB in tempo reale con AllMySat

Download on the App Store